Weather in Sarashi

Russia / Perm Krai     56°46′37″N   55°45′12″E
temp.,
°C
wind,
m/s
gust,
m/s
humid.,
%
clouds,
%
prec.,
mm/h
press.,
hPa
HPBL,
m
21 january, fri
fri2123:00−11ssw61294100 0.2 1019347
02:00−11ssw61295100 0.1 1020322
05:00−12ssw5119597 0.1 1021280
08:00−12ssw51195100 0.1 1020279
11:00−12ssw5119486 0.1 1022300
14:00−10ssw5993100 0.1 1022308
17:00−12s479584 0.1 1024193
20:00−16sse369984 0.0 102596
22 january, sat
sat2223:00−19sse2210097 0.1 102623
02:00−20sse2210099 0.0 102619
05:00−19se2210092 0.0 102722
08:00−17se229972 0.1 102735
11:00−14sse299891 0.1 1028204
14:00−9s4793100 0.1 1028323
17:00−11sse2397100 0.1 102932
20:00−15se22100100 0.0 103112
23 january, sun
sun2323:00−17se22100100 0.0 103115
02:00−16se2298100 0.0 103214
05:00−14se2296100 0.0 103321
08:00−14se2295100 0.0 103324
11:00−11se2395100 0.0 103469
14:00−7s3786100 0.0 1035235
17:00−8sse2390100 0.0 103655
20:00−10sse2591100 0.0 1037108
24 january, mon
mon2423:00−10s1293100 0.0 103828
02:00−9s2390100 0.0 103880
05:00−9ssw1192100 0.0 103922
08:00−11s2294100 0.0 103919
11:00−10s2392100 0.0 104075
14:00−7sw2382100 0.0 1039193
17:00−10ssw1193100 0.0 103910
20:00−11sw1194100 0.0 103923
25 january, tue
tue2523:00−15sw119643 0.0 10399
02:00−17ssw119897 0.0 10389
05:00−17ssw1197100 0.0 103810
08:00−17ssw1197100 0.0 103710
11:00−14ssw2291100 0.0 103649
14:00−10sw2383100 0.0 1034176
17:00−13s229455 0.0 103412
20:00−18s229841 0.0 103314